Showing default

INTELSAT 905, 27438

Orbit data source: Space-Track

INTELSAT 905, 27438 is a payload satellite owned by Intelsat Ltd (US) (US) in GEO that was launched on Wed, 05 Jun 2002 UTC via an ARIANE 44L launch vehicle from the French Guiana (FRGUI). Payload-class satellites include a variety of spacecraft equipped with specific instruments for various scientific and technological missions. These include communications satellites like Starlink; space stations such as the ISS; scientific satellites like the Hubble; Earth observation satellites from companies like Planet Labs, Umbra, and HawkEye 360; GPS; miniature CubeSats for education and research; and military/defense satellites.

Loading next visibility...
Identifier
27438, 2002-027A
Orbit
GEO
Country
Flag of UnknownUnknown / ITSO
Related business
Manufacturer
SS/Loral
Mission
Operational Commercial Communications
Bus & Motor
FS-1300HL, R-4D-15-260
Mass
4,723 kg wet, 1,984 kg dry
Launch date (UTC)
2002-06-05 (23 years ago)
Launch vehicle
ARIANE 44L
Launch site
French Guiana (FRGUI)
Object type
Payload
Rocket body
Debris
Shape & HBR
Box + 2 Pan + 2 Dish, 15.5 m
Radar Cross Section
40.765 m², Large (>1 m²)

Expand to show TLE details & history
Last TLE update: 13 hours ago

TLE from 13 hours ago
0 INTELSAT 905
1 27438U 02027A   25261.12657374  .00000077  00000-0  00000-0 0  9990
2 27438   6.0654  73.0657 0002362 109.4804  83.1203  1.00272012 48637
Epoch: 2025-09-18T03:02Z
TLE epoch observation values (Epoch: 2025-09-18T03:02:15.971Z)
Latitude
-1.30119°
Longitude
-137.23736°
Altitude
35,785.036 km
Speed
3.075 km/s
True Right ascension
17h 42m 29s
True Declination
-1° 17' 60"
Sunlit
Object was in daylight at epoch
Visualization orbit readout
Latitude
Unknown
Longitude
Unknown
Altitude
Unknown
Speed
Unknown
Apparent Right ascension
Unknown
Apparent Declination
Unknown
Sunlit
N/A
Visualization observer readout
Local Sidereal Time
09:18:06
Azimuth
Unknown
Elevation
Unknown
Doppler factor
Unknown
Orbital elements
Apogee altitude
35,797.544 km
Perigee altitude
35,777.625 km
Semi-major axis
42,165.721 km
Eccentricity
0.00024
Inclination
6.0654°
RAAN
73.0657°
Arg. of periapsis
109.4804°
True anomaly
83.14717°
Mean anomaly
83.1203°
Eccentric anomaly
83.13374°
Mean motion
0.25067 °/min
Orbital period
1,436.15 mins
BSTAR
0
Loading maneuver chart data...
Computing Atmospheric mass density...
Loading historical data...
Loading historical data...
Loading historical data...
Loading historical data...
Loading historical data...
Loading historical data...
Loading historical data...
Other satellites on launch #27 in the year 2002 (2002-06-05 UTC)

Documentation

Showing up to 5 results
|